DW4098 Weather Reports


time (UTC)temp
F
wind
direction
speed
knots
gust
knots
rain 1hr
in
rain 24hr
in
rain mn
in
humidity
%
barometer
mb
20260509090129 32 315 22.6 20.9 0.00 0.00 0.00 1 1028.5
20260509085128 62 118 0.0 1.7 0.00 0.00 0.00 63 1025.9
20260509084127 63 114 0.0 2.6 0.00 0.00 0.00 63 1025.8
20260509083127 32 315 22.6 20.9 0.00 0.00 0.00 1 1028.5
20260509082128 63 108 0.9 3.5 0.00 0.00 0.00 61 1025.5
20260509081149 64 109 1.7 3.5 0.00 0.00 0.00 60 1025.4
20260509080150 64 111 1.7 5.2 0.00 0.00 0.00 58 1025.1
20260509075127 63 115 1.7 5.2 0.00 0.00 0.00 55 1025.0
20260509074128 32 315 22.6 20.9 0.00 0.00 0.00 1 1028.5
20260509073149 32 315 22.6 20.9 0.00 0.00 0.00 1 1028.5
20260509072128 67 0 0.0 0.0 0.00 0.00 0.00 45 1024.4
20260509071127 32 315 22.6 20.9 0.00 0.00 0.00 1 1027.5
20260509070128 32 315 22.6 20.9 0.00 0.00 0.00 1 1027.5
20260509065148 70 84 0.9 2.6 0.00 0.00 0.00 39 1024.1
20260509064128 71 24 0.0 2.6 0.00 0.00 0.00 38 1024.0
20260509063148 32 315 22.6 20.9 0.00 0.00 0.00 1 1027.5
20260509062148 32 315 22.6 20.9 0.00 0.00 0.00 1 1027.5
20260509062127 72 102 0.9 2.6 0.00 0.00 0.00 36 1023.9
20260509061127 32 315 22.6 20.9 0.00 0.00 0.00 1 1026.4
20260509060128 73 106 0.0 1.7 0.00 0.00 0.00 37 1023.8
20260509055127 32 315 22.6 20.9 0.00 0.00 0.00 1 1026.4
20260509054127 32 315 22.6 20.9 0.00 0.00 0.00 1 1026.4
20260509053148 32 315 22.6 20.9 0.00 0.00 0.00 1 1026.4
20260509052148 73 147 0.9 3.5 0.00 0.00 0.00 36 1023.6
20260509051127 32 315 22.6 20.9 0.00 0.00 0.00 1 1026.4
20260509050128 32 315 22.6 20.9 0.00 0.00 0.00 1 1026.4
20260509045128 32 315 22.6 20.9 0.00 0.00 0.00 1 1026.4
20260509044127 32 315 22.6 20.9 0.00 0.00 0.00 1 1026.4
20260509043148 32 315 22.6 20.9 0.00 0.00 0.00 1 1026.4
20260509042128 73 161 1.7 3.5 0.00 0.00 0.00 39 1023.5
20260509041127 73 182 2.6 5.2 0.00 0.00 0.00 39 1023.5
20260509040148 32 315 22.6 20.9 0.00 0.00 0.00 1 1026.4
20260509035148 32 315 22.6 20.9 0.00 0.00 0.00 1 1027.5
20260509034128 73 81 0.9 4.3 0.00 0.00 0.00 40 1023.8
20260509033128 73 111 2.6 6.1 0.00 0.00 0.00 38 1023.9
20260509032128 32 315 22.6 20.9 0.00 0.00 0.00 1 1027.5
20260509031127 72 163 1.7 5.2 0.00 0.00 0.00 40 1024.1
20260509030127 70 175 1.7 4.3 0.00 0.00 0.00 42 1024.2
20260509025127 32 315 22.6 20.9 0.00 0.00 0.00 1 1028.5
20260509024127 72 116 2.6 6.1 0.00 0.00 0.00 42 1024.6
20260509023148 69 120 1.7 6.1 0.00 0.00 0.00 44 1024.7
20260509022127 32 315 22.6 20.9 0.00 0.00 0.00 1 1028.5
20260509021148 32 315 22.6 20.9 0.00 0.00 0.00 1 1028.5
20260509020128 32 315 22.6 20.9 0.00 0.00 0.00 1 1028.5
20260509015128 68 148 1.7 4.3 0.00 0.00 0.00 46 1025.4
20260509014127 70 173 2.6 6.1 0.00 0.00 0.00 47 1025.5
20260509013127 69 190 1.7 4.3 0.00 0.00 0.00 47 1025.6
20260509012126 32 315 22.6 20.9 0.00 0.00 0.00 1 1029.5
20260509011148 67 229 0.0 2.6 0.00 0.00 0.00 51 1025.8
20260509010127 67 282 1.7 5.2 0.00 0.00 0.00 52 1026.0
20260509005127 66 304 1.7 6.1 0.00 0.00 0.00 52 1026.1
20260509004127 65 333 2.6 7.8 0.00 0.00 0.00 54 1026.2
20260509003148 32 315 22.6 20.9 0.00 0.00 0.00 1 1029.5
20260509002127 64 300 2.6 7.0 0.00 0.00 0.00 55 1026.5
20260509001127 32 315 22.6 20.9 0.00 0.00 0.00 1 1029.5
20260509000128 62 309 2.6 7.8 0.00 0.00 0.00 58 1026.6
20260508235126 61 304 3.5 7.0 0.00 0.00 0.00 61 1026.7
20260508234127 60 323 3.5 8.7 0.00 0.00 0.00 62 1026.7
20260508233127 60 316 3.5 7.0 0.00 0.00 0.00 64 1026.9
20260508232126 32 315 22.6 20.9 0.00 0.00 0.00 1 1029.5
20260508231127 32 315 22.6 20.9 0.00 0.00 0.00 1 1029.5
20260508230126 57 345 2.6 6.1 0.00 0.00 0.00 67 1027.0
20260508225147 32 315 22.6 20.9 0.00 0.00 0.00 1 1029.5
20260508225126 57 334 3.5 7.0 0.00 0.00 0.00 68 1026.9
20260508224127 32 315 22.6 20.9 0.00 0.00 0.00 1 1029.5
20260508223127 32 315 22.6 20.9 0.00 0.00 0.00 1 1029.5
20260508222126 54 336 3.5 5.2 0.00 0.00 0.00 72 1026.6
20260508221148 53 332 2.6 5.2 0.00 0.00 0.00 74 1026.6
20260508220126 52 323 0.9 3.5 0.00 0.00 0.00 74 1026.5
20260508215126 52 312 0.0 2.6 0.00 0.00 0.00 76 1026.3
20260508214126 50 324 0.0 1.7 0.00 0.00 0.00 78 1026.2
20260508213147 49 0 0.0 0.0 0.00 0.00 0.00 81 1026.2
20260508212147 32 315 22.6 20.9 0.00 0.00 0.00 1 1028.5
20260508211127 32 315 22.6 20.9 0.00 0.00 0.00 1 1028.5
20260508210148 45 0 0.0 0.0 0.00 0.00 0.00 84 1025.9
20260508205126 45 0 0.0 0.0 0.00 0.00 0.00 86 1025.7
20260508204127 32 315 22.6 20.9 0.00 0.00 0.00 1 1027.5
20260508203127 32 315 22.6 20.9 0.00 0.00 0.00 1 1027.5
20260508202148 46 5 0.0 1.7 0.00 0.00 0.00 83 1025.2
20260508201126 46 4 0.0 2.6 0.00 0.00 0.00 85 1025.0
20260508200127 32 315 22.6 20.9 0.00 0.00 0.00 1 1026.4
20260508195126 46 351 0.0 1.7 0.00 0.00 0.00 83 1025.0
20260508194127 32 315 22.6 20.9 0.00 0.00 0.00 1 1026.4
20260508193127 32 315 22.6 20.9 0.00 0.00 0.00 1 1026.4
20260508192126 46 0 0.0 0.0 0.00 0.00 0.00 83 1024.5
20260508191127 46 0 0.0 0.0 0.00 0.00 0.00 84 1024.4
20260508190127 32 315 22.6 20.9 0.00 0.00 0.00 1 1026.4
20260508185126 32 315 22.6 20.9 0.00 0.00 0.00 1 1026.4
20260508184126 47 0 0.0 0.0 0.00 0.00 0.00 83 1024.1
20260508183126 32 315 22.6 20.9 0.00 0.00 0.00 1 1026.4
20260508182127 47 0 0.0 0.0 0.00 0.00 0.00 82 1024.1
20260508181127 32 315 22.6 20.9 0.00 0.00 0.00 1 1026.4
20260508180127 47 0 0.0 0.0 0.00 0.00 0.00 82 1024.0
20260508175126 32 315 22.6 20.9 0.00 0.00 0.00 1 1026.4
20260508174147 32 315 22.6 20.9 0.00 0.00 0.00 1 1026.4
20260508173126 32 315 22.6 20.9 0.00 0.00 0.00 1 1026.4
20260508172126 32 315 22.6 20.9 0.00 0.00 0.00 1 1026.4
20260508171126 48 45 0.0 1.7 0.00 0.00 0.00 79 1023.9
20260508170127 48 45 0.9 2.6 0.00 0.00 0.00 80 1023.9
20260508165126 32 315 22.6 20.9 0.00 0.00 0.00 1 1026.4
20260508164126 48 0 0.0 0.0 0.00 0.00 0.00 78 1023.9
20260508163126 32 315 22.6 20.9 0.00 0.00 0.00 1 1026.4
20260508162146 51 307 2.6 4.3 0.00 0.00 0.00 72 1023.8
20260508161147 32 315 22.6 20.9 0.00 0.00 0.00 1 1026.4
20260508160127 32 315 22.6 20.9 0.00 0.00 0.00 1 1026.4
20260508155126 32 315 22.6 20.9 0.00 0.00 0.00 1 1026.4
20260508154147 32 315 22.6 20.9 0.00 0.00 0.00 1 1026.4
20260508154126 50 29 0.0 1.7 0.00 0.00 0.00 76 1023.8
20260508153126 50 0 0.0 0.0 0.00 0.00 0.00 76 1023.9
20260508152126 50 104 0.0 0.0 0.00 0.00 0.00 75 1023.9
20260508151126 51 353 0.9 1.7 0.00 0.00 0.00 73 1023.9
20260508150148 32 315 22.6 20.9 0.00 0.00 0.00 1 1026.4
20260508145126 54 328 2.6 7.0 0.00 0.00 0.00 69 1023.5
20260508144126 54 327 1.7 4.3 0.00 0.00 0.00 68 1023.6
20260508143126 32 315 22.6 20.9 0.00 0.00 0.00 1 1026.4
20260508142125 32 315 22.6 20.9 0.00 0.00 0.00 1 1026.4
20260508141125 55 314 5.2 7.8 0.00 0.00 0.00 67 1023.5
20260508140128 32 315 22.6 20.9 0.00 0.00 0.00 1 1026.4
20260508135126 32 315 22.6 20.9 0.00 0.00 0.00 1 1026.4
20260508134147 55 314 4.3 8.7 0.00 0.00 0.00 65 1023.5
20260508133126 32 315 22.6 20.9 0.00 0.00 0.00 1 1026.4
20260508132126 32 315 22.6 20.9 0.00 0.00 0.00 1 1026.4
20260508131125 55 317 4.3 8.7 0.00 0.00 0.00 66 1023.3
20260508130126 55 321 4.3 7.8 0.00 0.00 0.00 66 1023.4
20260508125126 32 315 22.6 20.9 0.00 0.00 0.00 1 1025.4
20260508124126 32 315 22.6 20.9 0.00 0.00 0.00 1 1026.4
20260508123125 54 338 2.6 5.2 0.00 0.00 0.00 68 1023.6
20260508122125 53 7 1.7 3.5 0.00 0.00 0.00 68 1023.8
20260508121125 32 315 22.6 20.9 0.00 0.00 0.00 1 1026.4
20260508120125 55 303 0.9 2.6 0.00 0.00 0.00 64 1023.9
20260508115126 56 312 1.7 3.5 0.00 0.00 0.00 61 1023.7
20260508114125 57 313 2.6 4.3 0.00 0.00 0.00 61 1023.7
20260508113125 32 315 22.6 20.9 0.00 0.00 0.00 1 1026.4
20260508112125 32 315 22.6 20.9 0.00 0.00 0.00 1 1026.4
20260508111125 32 315 22.6 20.9 0.00 0.00 0.00 1 1026.4
20260508110126 58 304 1.7 2.6 0.00 0.00 0.00 58 1023.3
20260508105125 32 315 22.6 20.9 0.00 0.00 0.00 1 1026.4
20260508104125 32 315 22.6 20.9 0.00 0.00 0.00 1 1025.4
20260508103125 32 315 22.6 20.9 0.00 0.00 0.00 1 1025.4
20260508102125 32 315 22.6 20.9 0.00 0.00 0.00 1 1025.4
20260508101125 32 315 22.6 20.9 0.00 0.00 0.00 1 1025.4
20260508100126 32 315 22.6 20.9 0.00 0.00 0.00 1 1025.4
20260508095125 32 315 22.6 20.9 0.00 0.00 0.00 1 1025.4
20260508094125 59 217 0.0 0.0 0.00 0.00 0.00 55 1022.7
20260508093146 60 221 0.9 4.3 0.00 0.00 0.00 54 1022.4
20260508092125 32 315 22.6 20.9 0.00 0.00 0.00 1 1024.4
20260508091125 32 315 22.6 20.9 0.00 0.00 0.00 1 1024.4